QPF
0.00 0.00 0.00 0.00 0.00 0.00 0.00 0.00 0.00 0.00 0.00 0.00 0.00 0.00 0.00 0.00 0.00 0.00 0.00 0.00 0.00 0.00 0.00 0.01 0.01 0.01 0.01 0.01 0.01 0.01 0.01 0.01 0.01 0.01 0.02 0.02 0.02 0.01 0.01 0.01 0.01 0.02 0.03 0.04 0.04 0.03 0.02 0.01 0.02
0.00 0.00 0.00 0.00 0.00 0.00 0.00 0.00 0.00 0.00 0.00 0.00 0.00 0.00 0.00 0.00 0.00 0.00 0.00 0.00 0.00 0.00 0.00 0.01 0.01 0.01 0.01 0.01 0.01 0.01 0.01 0.01 0.01 0.02 0.02 0.03 0.03 0.02 0.02 0.02 0.02 0.02 0.02 0.02 0.02 0.03 0.01 0.01 0.01
0.00 0.00 0.00 0.00 0.00 0.00 0.00 0.00 0.00 0.00 0.00 0.00 0.00 0.00 0.00 0.00 0.00 0.00 0.00 0.00 0.00 0.00 0.01 0.01 0.01 0.01 0.01 0.01 0.01 0.01 0.01 0.01 0.02 0.03 0.02 0.02 0.02 0.01 0.01 0.02 0.03 0.03 0.02 0.01 0.02 0.02 0.01 0.01 0.00
0.00 0.00 0.00 0.00 0.00 0.00 0.00 0.00 0.00 0.00 0.00 0.00 0.00 0.00 0.00 0.00 0.00 0.00 0.00 0.00 0.00 0.01 0.01 0.01 0.02 0.02 0.02 0.01 0.01 0.01 0.01 0.02 0.03 0.02 0.01 0.01 0.01 0.01 0.01 0.01 0.02 0.02 0.02 0.02 0.01 0.01 0.01 0.01 0.01
0.00 0.00 0.00 0.00 0.00 0.00 0.00 0.00 0.00 0.00 0.00 0.00 0.00 0.00 0.00 0.00 0.00 0.00 0.00 0.00 0.00 0.01 0.01 0.02 0.02 0.03 0.02 0.02 0.01 0.02 0.02 0.03 0.03 0.03 0.02 0.02 0.02 0.02 0.02 0.01 0.01 0.01 0.01 0.01 0.01 0.01 0.01 0.01 0.01
0.01 0.00 0.00 0.00 0.00 0.00 0.00 0.00 0.00 0.00 0.00 0.00 0.00 0.00 0.00 0.01 0.01 0.01 0.01 0.00 0.00 0.01 0.01 0.02 0.03 0.03 0.03 0.02 0.02 0.02 0.02 0.03 0.04 0.03 0.02 0.02 0.02 0.03 0.03 0.02 0.01 0.01 0.01 0.01 0.01 0.01 0.01 0.01 0.01
0.01 0.00 0.00 0.00 0.00 0.00 0.00 0.00 0.00 0.00 0.00 0.00 0.00 0.00 0.00 0.01 0.01 0.01 0.01 0.00 0.00 0.00 0.01 0.01 0.03 0.02 0.02 0.03 0.03 0.03 0.03 0.03 0.03 0.03 0.02 0.03 0.03 0.03 0.02 0.02 0.01 0.01 0.01 0.01 0.01 0.01 0.02 0.01 0.01
0.00 0.00 0.00 0.00 0.00 0.00 0.00 0.00 0.00 0.00 0.00 0.00 0.00 0.00 0.00 0.00 0.01 0.01 0.01 0.01 0.01 0.01 0.01 0.01 0.02 0.02 0.02 0.03 0.03 0.02 0.03 0.03 0.03 0.03 0.03 0.02 0.02 0.02 0.02 0.01 0.01 0.01 0.01 0.01 0.01 0.01 0.01 0.01 0.01
0.00 0.00 0.00 0.00 0.00 0.00 0.00 0.00 0.00 0.00 0.00 0.00 0.00 0.00 0.00 0.00 0.01 0.01 0.01 0.01 0.01 0.01 0.01 0.01 0.02 0.02 0.02 0.03 0.02 0.03 0.02 0.02 0.02 0.02 0.01 0.01 0.02 0.03 0.02 0.01 0.00 0.01 0.01 0.01 0.01 0.01 0.00 0.00 0.00
0.01 0.00 0.00 0.00 0.00 0.00 0.00 0.00 0.00 0.00 0.00 0.00 0.00 0.00 0.00 0.00 0.01 0.01 0.01 0.01 0.01 0.01 0.01 0.01 0.01 0.02 0.02 0.02 0.03 0.03 0.03 0.02 0.01 0.02 0.02 0.02 0.02 0.03 0.03 0.01 0.01 0.01 0.01 0.01 0.01 0.01 0.00 0.00 0.00
0.01 0.00 0.00 0.00 0.00 0.00 0.00 0.00 0.00 0.00 0.00 0.00 0.00 0.00 0.00 0.01 0.01 0.01 0.01 0.01 0.01 0.01 0.01 0.01 0.01 0.01 0.02 0.02 0.02 0.02 0.02 0.02 0.03 0.02 0.02 0.02 0.02 0.02 0.03 0.02 0.01 0.01 0.01 0.01 0.01 0.00 0.00 0.00 0.00
0.00 0.00 0.00 0.00 0.00 0.00 0.00 0.00 0.00 0.00 0.00 0.00 0.00 0.00 0.00 0.00 0.01 0.01 0.01 0.02 0.02 0.02 0.02 0.02 0.01 0.01 0.02 0.02 0.03 0.03 0.02 0.01 0.02 0.02 0.03 0.02 0.02 0.02 0.03 0.02 0.01 0.01 0.01 0.00 0.00 0.00 0.00 0.00 0.00
0.00 0.00 0.00 0.00 0.00 0.00 0.00 0.00 0.00 0.00 0.00 0.00 0.00 0.00 0.00 0.00 0.00 0.00 0.01 0.01 0.02 0.03 0.03 0.03 0.02 0.02 0.02 0.02 0.02 0.03 0.03 0.02 0.01 0.01 0.01 0.02 0.02 0.01 0.02 0.02 0.02 0.01 0.01 0.01 0.00 0.00 0.00 0.00 0.00
0.00 0.00 0.00 0.00 0.00 0.00 0.00 0.00 0.00 0.00 0.00 0.00 0.00 0.00 0.00 0.00 0.00 0.01 0.01 0.01 0.02 0.02 0.02 0.03 0.03 0.02 0.02 0.03 0.03 0.03 0.03 0.03 0.02 0.01 0.01 0.01 0.02 0.02 0.03 0.03 0.02 0.01 0.01 0.00 0.00 0.00 0.00 0.00 0.00
0.00 0.00 0.00 0.00 0.00 0.00 0.00 0.00 0.00 0.00 0.00 0.00 0.00 0.00 0.00 0.00 0.00 0.00 0.01 0.01 0.02 0.02 0.02 0.02 0.03 0.03 0.02 0.03 0.03 0.04 0.04 0.03 0.03 0.02 0.01 0.01 0.01 0.02 0.03 0.03 0.02 0.01 0.00 0.00 0.00 0.00 0.00 0.00 0.00
0.01 0.01 0.00 0.00 0.00 0.00 0.00 0.00 0.00 0.00 0.00 0.00 0.00 0.01 0.01 0.00 0.00 0.00 0.01 0.02 0.02 0.02 0.02 0.02 0.03 0.03 0.03 0.03 0.03 0.03 0.05 0.05 0.04 0.02 0.01 0.01 0.01 0.01 0.03 0.03 0.03 0.02 0.00 0.00 0.00 0.00 0.00 0.00 0.00
0.01 0.01 0.00 0.00 0.00 0.00 0.00 0.00 0.00 0.00 0.00 0.00 0.01 0.01 0.01 0.01 0.01 0.01 0.01 0.02 0.03 0.03 0.02 0.02 0.03 0.03 0.03 0.04 0.04 0.03 0.04 0.05 0.05 0.04 0.02 0.01 0.01 0.01 0.02 0.03 0.03 0.03 0.01 0.00 0.00 0.00 0.00 0.00 0.00
0.01 0.00 0.00 0.00 0.00 0.00 0.00 0.00 0.00 0.00 0.00 0.00 0.01 0.01 0.01 0.01 0.01 0.01 0.02 0.03 0.04 0.04 0.03 0.02 0.02 0.03 0.03 0.03 0.03 0.04 0.03 0.04 0.05 0.06 0.04 0.02 0.01 0.01 0.02 0.04 0.04 0.04 0.02 0.00 0.00 0.00 0.00 0.00 0.00
0.01 0.01 0.00 0.00 0.00 0.01 0.01 0.01 0.01 0.01 0.00 0.01 0.01 0.01 0.01 0.01 0.02 0.02 0.02 0.03 0.04 0.04 0.04 0.03 0.03 0.02 0.03 0.03 0.03 0.04 0.04 0.04 0.04 0.06 0.07 0.05 0.02 0.01 0.03 0.06 0.06 0.05 0.02 0.01 0.01 0.00 0.00 0.00 0.00
0.02 0.01 0.01 0.00 0.00 0.00 0.01 0.01 0.01 0.01 0.01 0.01 0.01 0.01 0.01 0.01 0.01 0.02 0.02 0.02 0.04 0.05 0.04 0.03 0.03 0.03 0.02 0.01 0.01 0.02 0.04 0.04 0.03 0.03 0.06 0.07 0.05 0.03 0.04 0.08 0.08 0.06 0.03 0.01 0.01 0.01 0.00 0.00 0.00
0.03 0.01 0.01 0.00 0.00 0.00 0.01 0.02 0.01 0.01 0.01 0.01 0.01 0.01 0.01 0.01 0.01 0.01 0.01 0.01 0.02 0.05 0.04 0.03 0.02 0.03 0.02 0.02 0.01 0.03 0.04 0.05 0.05 0.04 0.05 0.06 0.05 0.05 0.05 0.07 0.08 0.06 0.03 0.01 0.01 0.01 0.01 0.01 0.00
0.04 0.01 0.01 0.01 0.01 0.01 0.02 0.03 0.02 0.01 0.01 0.01 0.01 0.01 0.01 0.01 0.01 0.01 0.02 0.01 0.02 0.04 0.05 0.03 0.03 0.03 0.03 0.03 0.02 0.02 0.03 0.03 0.04 0.03 0.03 0.04 0.04 0.04 0.05 0.08 0.08 0.06 0.03 0.01 0.01 0.01 0.01 0.01 0.01
0.03 0.02 0.01 0.01 0.01 0.01 0.01 0.03 0.03 0.01 0.01 0.01 0.01 0.02 0.02 0.02 0.01 0.02 0.02 0.01 0.02 0.03 0.05 0.06 0.04 0.04 0.04 0.04 0.02 0.03 0.03 0.03 0.03 0.04 0.03 0.03 0.04 0.03 0.03 0.05 0.07 0.06 0.03 0.02 0.01 0.01 0.01 0.01 0.01
0.03 0.03 0.02 0.02 0.03 0.03 0.02 0.03 0.04 0.04 0.03 0.02 0.01 0.02 0.03 0.03 0.02 0.03 0.02 0.02 0.02 0.03 0.03 0.06 0.06 0.05 0.05 0.05 0.03 0.03 0.03 0.04 0.04 0.04 0.04 0.03 0.03 0.03 0.03 0.03 0.03 0.04 0.03 0.02 0.02 0.01 0.01 0.01 0.01
0.04 0.06 0.08 0.09 0.08 0.05 0.03 0.03 0.05 0.05 0.04 0.03 0.04 0.04 0.04 0.04 0.03 0.03 0.04 0.04 0.03 0.02 0.02 0.03 0.07 0.06 0.05 0.05 0.03 0.03 0.04 0.04 0.05 0.04 0.04 0.03 0.02 0.02 0.04 0.05 0.04 0.03 0.03 0.03 0.02 0.02 0.02 0.02 0.01
0.05 0.04 0.05 0.05 0.04 0.03 0.03 0.04 0.06 0.06 0.04 0.04 0.05 0.05 0.04 0.04 0.04 0.04 0.04 0.06 0.04 0.03 0.02 0.02 0.05 0.08 0.07 0.06 0.04 0.02 0.03 0.04 0.05 0.04 0.04 0.03 0.02 0.01 0.03 0.06 0.07 0.06 0.05 0.04 0.04 0.03 0.03 0.03 0.03
0.06 0.04 0.03 0.04 0.03 0.03 0.03 0.04 0.05 0.05 0.04 0.05 0.05 0.05 0.05 0.05 0.04 0.04 0.04 0.05 0.05 0.06 0.05 0.04 0.03 0.06 0.07 0.08 0.05 0.03 0.02 0.03 0.04 0.05 0.04 0.04 0.02 0.01 0.01 0.02 0.04 0.05 0.05 0.05 0.05 0.05 0.05 0.04 0.03
0.04 0.04 0.05 0.06 0.04 0.03 0.03 0.03 0.05 0.06 0.06 0.06 0.05 0.05 0.07 0.06 0.04 0.04 0.04 0.04 0.04 0.04 0.04 0.04 0.04 0.04 0.06 0.08 0.08 0.05 0.03 0.02 0.03 0.04 0.04 0.04 0.04 0.02 0.01 0.01 0.02 0.02 0.03 0.06 0.07 0.06 0.05 0.05 0.04
0.03 0.04 0.05 0.05 0.04 0.04 0.03 0.04 0.05 0.06 0.06 0.05 0.05 0.06 0.08 0.07 0.05 0.05 0.05 0.04 0.04 0.04 0.04 0.03 0.03 0.03 0.04 0.06 0.09 0.07 0.04 0.03 0.03 0.03 0.04 0.04 0.05 0.06 0.03 0.02 0.02 0.02 0.02 0.03 0.06 0.07 0.07 0.06 0.05
0.03 0.05 0.05 0.05 0.04 0.03 0.02 0.04 0.04 0.05 0.05 0.05 0.05 0.05 0.07 0.06 0.06 0.05 0.05 0.04 0.05 0.05 0.04 0.03 0.02 0.03 0.03 0.05 0.07 0.09 0.07 0.04 0.03 0.03 0.03 0.04 0.04 0.07 0.09 0.06 0.03 0.02 0.03 0.03 0.04 0.05 0.06 0.06 0.06
MSLP
1016.14 1016.17 1016.31 1016.54 1016.82 1017.09 1017.31 1017.44 1017.48 1017.44 1017.33 1017.19 1017.03 1016.86 1016.69 1016.50 1016.30 1016.08 1015.86 1015.68 1015.57 1015.56 1015.68 1015.93 1016.28 1016.69 1017.12 1017.50 1017.81 1018.02 1018.16 1018.23 1018.28 1018.34 1018.43 1018.55 1018.68 1018.81 1018.92 1018.97 1018.99 1018.98 1018.97 1018.98 1019.03 1019.13 1019.26 1019.40 1019.52
1016.24 1016.32 1016.50 1016.75 1017.02 1017.25 1017.42 1017.51 1017.51 1017.44 1017.32 1017.19 1017.04 1016.90 1016.75 1016.59 1016.40 1016.19 1015.99 1015.82 1015.72 1015.72 1015.84 1016.09 1016.44 1016.84 1017.25 1017.62 1017.92 1018.13 1018.28 1018.38 1018.47 1018.58 1018.72 1018.89 1019.05 1019.20 1019.30 1019.35 1019.34 1019.31 1019.28 1019.29 1019.35 1019.47 1019.63 1019.80 1019.93
1016.39 1016.52 1016.73 1016.96 1017.19 1017.37 1017.47 1017.50 1017.47 1017.38 1017.28 1017.17 1017.08 1016.98 1016.88 1016.75 1016.59 1016.41 1016.22 1016.06 1015.96 1015.97 1016.09 1016.33 1016.66 1017.03 1017.41 1017.74 1018.01 1018.20 1018.35 1018.47 1018.59 1018.74 1018.92 1019.13 1019.33 1019.49 1019.60 1019.64 1019.63 1019.59 1019.56 1019.57 1019.64 1019.78 1019.96 1020.15 1020.31
1016.65 1016.82 1017.03 1017.24 1017.40 1017.51 1017.54 1017.51 1017.45 1017.38 1017.31 1017.27 1017.24 1017.22 1017.17 1017.09 1016.96 1016.80 1016.62 1016.46 1016.37 1016.37 1016.48 1016.69 1016.99 1017.31 1017.64 1017.91 1018.13 1018.29 1018.41 1018.52 1018.66 1018.83 1019.04 1019.27 1019.49 1019.67 1019.79 1019.84 1019.84 1019.81 1019.78 1019.81 1019.90 1020.05 1020.25 1020.46 1020.63
1017.03 1017.24 1017.45 1017.61 1017.71 1017.74 1017.72 1017.66 1017.60 1017.56 1017.56 1017.60 1017.66 1017.72 1017.74 1017.70 1017.60 1017.44 1017.26 1017.09 1016.98 1016.95 1017.04 1017.21 1017.46 1017.73 1017.98 1018.19 1018.35 1018.45 1018.53 1018.61 1018.73 1018.90 1019.11 1019.35 1019.58 1019.78 1019.91 1019.98 1019.99 1019.98 1019.98 1020.02 1020.13 1020.29 1020.50 1020.71 1020.89
1017.54 1017.78 1017.98 1018.12 1018.17 1018.15 1018.10 1018.04 1018.01 1018.04 1018.13 1018.28 1018.44 1018.59 1018.67 1018.66 1018.57 1018.40 1018.19 1017.98 1017.83 1017.77 1017.80 1017.92 1018.09 1018.29 1018.47 1018.60 1018.68 1018.72 1018.74 1018.78 1018.87 1019.01 1019.20 1019.43 1019.65 1019.85 1020.00 1020.08 1020.12 1020.13 1020.15 1020.21 1020.33 1020.49 1020.69 1020.89 1021.07
1018.14 1018.41 1018.61 1018.73 1018.77 1018.75 1018.70 1018.69 1018.74 1018.88 1019.09 1019.36 1019.62 1019.84 1019.97 1019.98 1019.87 1019.67 1019.41 1019.14 1018.93 1018.79 1018.75 1018.79 1018.88 1018.99 1019.08 1019.13 1019.13 1019.10 1019.07 1019.06 1019.10 1019.21 1019.37 1019.57 1019.77 1019.96 1020.10 1020.19 1020.25 1020.28 1020.33 1020.40 1020.51 1020.66 1020.83 1021.01 1021.16
1018.76 1019.06 1019.28 1019.41 1019.47 1019.49 1019.52 1019.60 1019.77 1020.04 1020.40 1020.78 1021.14 1021.43 1021.58 1021.59 1021.44 1021.18 1020.85 1020.51 1020.21 1019.98 1019.84 1019.78 1019.77 1019.77 1019.77 1019.73 1019.66 1019.57 1019.49 1019.44 1019.45 1019.51 1019.64 1019.80 1019.97 1020.14 1020.27 1020.36 1020.42 1020.46 1020.51 1020.58 1020.68 1020.80 1020.93 1021.07 1021.18
1019.33 1019.65 1019.91 1020.09 1020.22 1020.33 1020.47 1020.70 1021.03 1021.45 1021.94 1022.44 1022.88 1023.20 1023.36 1023.34 1023.15 1022.82 1022.41 1021.99 1021.59 1021.26 1021.01 1020.83 1020.70 1020.59 1020.48 1020.35 1020.21 1020.07 1019.95 1019.88 1019.86 1019.91 1020.00 1020.13 1020.27 1020.40 1020.50 1020.58 1020.63 1020.67 1020.72 1020.77 1020.84 1020.92 1021.00 1021.08 1021.14
1019.80 1020.15 1020.45 1020.71 1020.93 1021.18 1021.48 1021.88 1022.38 1022.96 1023.58 1024.17 1024.67 1025.00 1025.14 1025.08 1024.83 1024.43 1023.96 1023.45 1022.97 1022.54 1022.18 1021.87 1021.61 1021.37 1021.14 1020.92 1020.71 1020.53 1020.39 1020.31 1020.29 1020.32 1020.41 1020.51 1020.62 1020.72 1020.79 1020.84 1020.88 1020.91 1020.93 1020.97 1021.00 1021.03 1021.06 1021.07 1021.08
1020.19 1020.56 1020.91 1021.25 1021.60 1022.00 1022.48 1023.06 1023.73 1024.45 1025.17 1025.82 1026.33 1026.65 1026.75 1026.63 1026.33 1025.88 1025.35 1024.80 1024.25 1023.75 1023.28 1022.86 1022.46 1022.09 1021.73 1021.40 1021.12 1020.89 1020.73 1020.66 1020.65 1020.70 1020.79 1020.88 1020.97 1021.04 1021.09 1021.11 1021.13 1021.14 1021.15 1021.16 1021.16 1021.15 1021.13 1021.09 1021.04
1020.55 1020.93 1021.33 1021.75 1022.23 1022.78 1023.43 1024.17 1024.98 1025.82 1026.60 1027.26 1027.75 1028.01 1028.05 1027.88 1027.52 1027.05 1026.50 1025.93 1025.36 1024.81 1024.27 1023.75 1023.23 1022.72 1022.23 1021.79 1021.42 1021.14 1020.96 1020.89 1020.90 1020.97 1021.08 1021.18 1021.26 1021.32 1021.34 1021.34 1021.34 1021.34 1021.33 1021.33 1021.32 1021.29 1021.23 1021.14 1021.04
1021.02 1021.39 1021.81 1022.30 1022.87 1023.55 1024.33 1025.20 1026.12 1027.01 1027.81 1028.44 1028.86 1029.05 1029.00 1028.77 1028.38 1027.90 1027.37 1026.82 1026.27 1025.72 1025.14 1024.54 1023.92 1023.28 1022.67 1022.11 1021.64 1021.29 1021.08 1021.00 1021.02 1021.12 1021.24 1021.35 1021.44 1021.49 1021.50 1021.49 1021.48 1021.47 1021.47 1021.48 1021.47 1021.43 1021.36 1021.25 1021.11
1021.72 1022.06 1022.48 1022.99 1023.61 1024.36 1025.23 1026.18 1027.14 1028.04 1028.80 1029.35 1029.68 1029.76 1029.62 1029.32 1028.91 1028.44 1027.96 1027.48 1026.98 1026.47 1025.90 1025.26 1024.56 1023.83 1023.09 1022.42 1021.84 1021.41 1021.15 1021.04 1021.05 1021.15 1021.28 1021.40 1021.49 1021.54 1021.55 1021.53 1021.52 1021.53 1021.55 1021.57 1021.59 1021.57 1021.51 1021.41 1021.25
1022.75 1023.03 1023.40 1023.89 1024.51 1025.28 1026.17 1027.12 1028.08 1028.94 1029.62 1030.08 1030.28 1030.24 1030.01 1029.64 1029.21 1028.77 1028.35 1027.95 1027.54 1027.10 1026.57 1025.94 1025.20 1024.40 1023.57 1022.78 1022.11 1021.59 1021.25 1021.09 1021.07 1021.15 1021.27 1021.38 1021.46 1021.50 1021.51 1021.50 1021.50 1021.52 1021.56 1021.62 1021.68 1021.70 1021.68 1021.59 1021.44
1024.12 1024.32 1024.60 1025.01 1025.57 1026.29 1027.14 1028.06 1028.96 1029.75 1030.34 1030.68 1030.76 1030.61 1030.28 1029.85 1029.41 1028.99 1028.63 1028.32 1028.01 1027.65 1027.19 1026.59 1025.86 1025.02 1024.13 1023.27 1022.50 1021.90 1021.48 1021.25 1021.17 1021.20 1021.29 1021.37 1021.43 1021.46 1021.45 1021.44 1021.44 1021.47 1021.54 1021.64 1021.74 1021.81 1021.82 1021.77 1021.64
1025.77 1025.86 1026.01 1026.29 1026.74 1027.36 1028.12 1028.96 1029.78 1030.48 1030.98 1031.22 1031.20 1030.95 1030.55 1030.07 1029.61 1029.21 1028.90 1028.65 1028.43 1028.15 1027.77 1027.23 1026.53 1025.70 1024.79 1023.89 1023.08 1022.40 1021.91 1021.60 1021.46 1021.42 1021.44 1021.48 1021.50 1021.48 1021.45 1021.42 1021.42 1021.45 1021.53 1021.65 1021.77 1021.88 1021.94 1021.92 1021.82
1027.55 1027.50 1027.50 1027.61 1027.90 1028.38 1029.02 1029.76 1030.49 1031.12 1031.54 1031.72 1031.63 1031.33 1030.88 1030.38 1029.90 1029.50 1029.22 1029.01 1028.84 1028.64 1028.32 1027.86 1027.21 1026.43 1025.55 1024.66 1023.83 1023.12 1022.58 1022.21 1021.98 1021.87 1021.82 1021.78 1021.74 1021.67 1021.59 1021.53 1021.49 1021.51 1021.57 1021.68 1021.81 1021.93 1022.01 1022.02 1021.95
1029.29 1029.08 1028.90 1028.83 1028.94 1029.26 1029.76 1030.39 1031.04 1031.61 1032.00 1032.15 1032.06 1031.75 1031.30 1030.79 1030.30 1029.91 1029.63 1029.43 1029.28 1029.11 1028.85 1028.45 1027.88 1027.17 1026.37 1025.53 1024.73 1024.04 1023.47 1023.06 1022.77 1022.58 1022.45 1022.33 1022.20 1022.07 1021.93 1021.80 1021.72 1021.68 1021.71 1021.78 1021.88 1021.98 1022.05 1022.07 1022.02
1030.81 1030.45 1030.09 1029.84 1029.77 1029.92 1030.28 1030.80 1031.38 1031.91 1032.30 1032.48 1032.43 1032.17 1031.76 1031.29 1030.82 1030.43 1030.13 1029.93 1029.76 1029.59 1029.35 1029.00 1028.51 1027.89 1027.18 1026.44 1025.73 1025.08 1024.54 1024.11 1023.78 1023.53 1023.31 1023.11 1022.90 1022.69 1022.47 1022.27 1022.11 1022.01 1021.96 1021.96 1021.99 1022.04 1022.08 1022.08 1022.03
1032.02 1031.52 1031.01 1030.58 1030.34 1030.33 1030.56 1030.97 1031.49 1032.00 1032.41 1032.65 1032.69 1032.53 1032.22 1031.83 1031.41 1031.03 1030.72 1030.48 1030.28 1030.08 1029.84 1029.51 1029.08 1028.55 1027.96 1027.34 1026.73 1026.17 1025.68 1025.27 1024.93 1024.63 1024.35 1024.07 1023.78 1023.48 1023.19 1022.91 1022.67 1022.47 1022.33 1022.23 1022.17 1022.14 1022.11 1022.06 1022.00
1032.91 1032.31 1031.67 1031.12 1030.73 1030.58 1030.67 1030.97 1031.41 1031.90 1032.34 1032.65 1032.80 1032.78 1032.60 1032.32 1031.99 1031.65 1031.34 1031.07 1030.83 1030.58 1030.31 1029.99 1029.60 1029.15 1028.66 1028.16 1027.67 1027.22 1026.80 1026.44 1026.10 1025.77 1025.45 1025.11 1024.75 1024.38 1024.01 1023.65 1023.32 1023.03 1022.79 1022.58 1022.42 1022.28 1022.16 1022.05 1021.94
1033.56 1032.91 1032.20 1031.55 1031.05 1030.77 1030.73 1030.90 1031.25 1031.68 1032.13 1032.50 1032.75 1032.86 1032.84 1032.70 1032.49 1032.23 1031.95 1031.66 1031.38 1031.09 1030.77 1030.43 1030.07 1029.68 1029.27 1028.88 1028.50 1028.14 1027.81 1027.49 1027.17 1026.84 1026.48 1026.10 1025.69 1025.26 1024.83 1024.41 1024.01 1023.64 1023.30 1022.99 1022.71 1022.46 1022.24 1022.05 1021.89
1034.09 1033.44 1032.72 1032.03 1031.45 1031.06 1030.87 1030.90 1031.11 1031.45 1031.84 1032.23 1032.55 1032.78 1032.90 1032.92 1032.84 1032.68 1032.47 1032.20 1031.91 1031.58 1031.22 1030.86 1030.49 1030.13 1029.78 1029.46 1029.17 1028.90 1028.63 1028.36 1028.06 1027.73 1027.36 1026.95 1026.50 1026.04 1025.57 1025.10 1024.65 1024.22 1023.80 1023.41 1023.03 1022.68 1022.37 1022.09 1021.86
1034.61 1034.02 1033.34 1032.65 1032.03 1031.54 1031.21 1031.07 1031.10 1031.28 1031.56 1031.89 1032.22 1032.53 1032.76 1032.92 1032.99 1032.96 1032.84 1032.63 1032.35 1032.01 1031.63 1031.24 1030.86 1030.50 1030.18 1029.91 1029.67 1029.45 1029.23 1028.99 1028.71 1028.38 1028.00 1027.58 1027.12 1026.64 1026.15 1025.67 1025.19 1024.73 1024.27 1023.81 1023.36 1022.93 1022.53 1022.17 1021.86
1035.18 1034.69 1034.10 1033.45 1032.82 1032.24 1031.77 1031.44 1031.25 1031.22 1031.32 1031.53 1031.81 1032.13 1032.44 1032.71 1032.91 1033.01 1033.00 1032.88 1032.65 1032.33 1031.95 1031.55 1031.15 1030.79 1030.47 1030.21 1029.99 1029.80 1029.60 1029.38 1029.11 1028.78 1028.40 1027.97 1027.51 1027.03 1026.55 1026.07 1025.60 1025.13 1024.65 1024.17 1023.67 1023.18 1022.71 1022.27 1021.89
1035.79 1035.43 1034.95 1034.37 1033.74 1033.10 1032.49 1031.96 1031.55 1031.27 1031.15 1031.18 1031.34 1031.61 1031.93 1032.28 1032.58 1032.81 1032.92 1032.90 1032.75 1032.48 1032.13 1031.73 1031.33 1030.96 1030.63 1030.37 1030.15 1029.95 1029.76 1029.53 1029.26 1028.94 1028.56 1028.13 1027.68 1027.22 1026.76 1026.31 1025.86 1025.41 1024.94 1024.45 1023.94 1023.42 1022.90 1022.40 1021.95
1036.37 1036.13 1035.76 1035.27 1034.66 1033.97 1033.25 1032.54 1031.90 1031.38 1031.02 1030.84 1030.84 1031.00 1031.29 1031.66 1032.03 1032.35 1032.58 1032.67 1032.61 1032.42 1032.12 1031.75 1031.36 1030.99 1030.66 1030.38 1030.15 1029.94 1029.74 1029.51 1029.23 1028.90 1028.52 1028.11 1027.67 1027.24 1026.81 1026.39 1025.98 1025.57 1025.13 1024.66 1024.15 1023.61 1023.06 1022.52 1022.01
1036.79 1036.65 1036.37 1035.94 1035.37 1034.66 1033.86 1033.01 1032.19 1031.46 1030.87 1030.49 1030.31 1030.35 1030.56 1030.90 1031.30 1031.68 1031.99 1032.18 1032.22 1032.11 1031.89 1031.57 1031.22 1030.86 1030.54 1030.26 1030.01 1029.80 1029.58 1029.34 1029.05 1028.72 1028.35 1027.95 1027.53 1027.12 1026.73 1026.35 1025.98 1025.61 1025.20 1024.76 1024.27 1023.74 1023.17 1022.59 1022.04
1036.96 1036.86 1036.63 1036.25 1035.70 1034.99 1034.15 1033.23 1032.29 1031.41 1030.66 1030.11 1029.78 1029.68 1029.80 1030.08 1030.47 1030.88 1031.24 1031.49 1031.62 1031.60 1031.45 1031.20 1030.90 1030.58 1030.28 1030.01 1029.77 1029.55 1029.32 1029.07 1028.79 1028.46 1028.09 1027.70 1027.30 1026.91 1026.55 1026.20 1025.87 1025.53 1025.16 1024.75 1024.28 1023.75 1023.19 1022.59 1022.00
Thickness
5690 5693 5698 5698 5694 5693 5702 5714 5715 5714 5717 5724 5727 5728 5731 5732 5729 5726 5735 5743 5742 5739 5735 5730 5728 5726 5725 5724 5723 5722 5722 5721 5721 5720 5720 5719 5718 5718 5717 5717 5716 5716 5715 5715 5714 5713 5713 5712 5711
5684 5688 5690 5689 5685 5688 5701 5713 5710 5715 5718 5718 5720 5722 5724 5728 5732 5731 5733 5735 5736 5735 5731 5727 5724 5723 5721 5720 5720 5719 5718 5718 5717 5717 5716 5716 5715 5715 5714 5714 5713 5713 5712 5711 5711 5710 5709 5708 5708
5678 5681 5681 5680 5682 5694 5704 5708 5712 5713 5712 5712 5714 5718 5721 5724 5727 5727 5730 5731 5731 5729 5726 5723 5719 5718 5717 5716 5716 5715 5715 5714 5714 5713 5713 5712 5712 5711 5711 5710 5710 5709 5708 5708 5707 5706 5706 5705 5704
5672 5671 5671 5672 5681 5696 5702 5704 5703 5702 5703 5706 5709 5710 5715 5719 5722 5724 5725 5726 5725 5723 5721 5717 5715 5714 5713 5712 5711 5711 5711 5710 5710 5710 5709 5709 5708 5708 5707 5706 5706 5705 5705 5704 5703 5703 5702 5701 5701
5663 5663 5661 5666 5680 5691 5693 5694 5693 5696 5699 5702 5703 5705 5708 5712 5716 5718 5719 5720 5719 5717 5715 5712 5709 5708 5708 5707 5707 5707 5706 5706 5706 5705 5705 5705 5704 5704 5703 5702 5702 5702 5701 5701 5700 5699 5698 5698 5697
5651 5655 5657 5667 5678 5682 5684 5685 5687 5689 5693 5695 5695 5698 5702 5705 5707 5710 5712 5712 5712 5711 5709 5706 5703 5703 5702 5702 5702 5702 5702 5701 5701 5701 5701 5700 5700 5699 5699 5698 5698 5698 5698 5697 5696 5696 5695 5694 5693
5643 5645 5654 5666 5671 5673 5676 5677 5679 5683 5685 5688 5692 5692 5696 5697 5699 5701 5703 5704 5704 5704 5703 5701 5698 5697 5696 5696 5696 5696 5696 5696 5696 5696 5696 5695 5695 5695 5694 5694 5694 5694 5694 5693 5692 5692 5691 5690 5689
5636 5637 5643 5653 5658 5664 5668 5667 5671 5674 5678 5683 5684 5685 5687 5688 5690 5692 5694 5695 5695 5696 5696 5695 5694 5693 5692 5690 5690 5690 5690 5691 5691 5690 5691 5690 5690 5689 5689 5689 5689 5689 5689 5689 5688 5687 5687 5686 5685
5623 5623 5636 5646 5648 5653 5654 5654 5659 5664 5667 5669 5674 5677 5679 5680 5681 5682 5683 5684 5686 5687 5689 5689 5688 5688 5687 5686 5685 5684 5684 5684 5685 5685 5685 5685 5686 5685 5684 5684 5684 5685 5685 5684 5684 5683 5682 5682 5681
5610 5616 5631 5634 5635 5637 5639 5641 5645 5650 5654 5656 5660 5663 5666 5668 5670 5673 5675 5676 5678 5679 5681 5682 5683 5682 5682 5681 5680 5679 5679 5679 5680 5681 5681 5681 5682 5681 5681 5679 5679 5680 5680 5679 5679 5678 5678 5678 5678
5599 5607 5614 5614 5616 5619 5622 5626 5632 5637 5641 5647 5649 5652 5654 5656 5660 5663 5666 5670 5672 5673 5674 5675 5676 5676 5676 5675 5675 5675 5675 5674 5675 5676 5677 5677 5677 5677 5676 5674 5674 5675 5675 5675 5674 5674 5675 5676 5675
5584 5590 5592 5596 5597 5601 5606 5610 5616 5623 5631 5636 5640 5642 5643 5646 5649 5653 5656 5660 5663 5665 5666 5667 5668 5669 5669 5669 5669 5669 5669 5669 5670 5671 5672 5672 5672 5672 5671 5671 5671 5671 5671 5671 5671 5671 5671 5672 5671
5568 5572 5575 5577 5578 5583 5588 5594 5600 5607 5614 5619 5624 5628 5632 5636 5640 5643 5647 5650 5653 5655 5657 5659 5660 5662 5662 5663 5663 5663 5664 5664 5664 5665 5666 5667 5667 5667 5667 5667 5666 5667 5667 5667 5667 5667 5667 5667 5667
5552 5554 5558 5560 5563 5568 5571 5578 5581 5591 5598 5603 5608 5613 5619 5624 5628 5632 5635 5639 5642 5646 5648 5651 5652 5654 5655 5656 5656 5657 5658 5658 5659 5659 5660 5661 5662 5662 5662 5662 5661 5661 5662 5662 5662 5662 5662 5662 5661
5535 5536 5542 5547 5549 5554 5556 5559 5565 5576 5582 5588 5594 5600 5605 5611 5616 5621 5625 5628 5632 5636 5640 5642 5644 5645 5648 5649 5650 5650 5651 5652 5653 5653 5653 5655 5656 5656 5656 5656 5656 5656 5656 5656 5657 5656 5656 5656 5655
5520 5522 5528 5537 5537 5540 5541 5548 5554 5560 5566 5573 5580 5587 5592 5598 5605 5610 5614 5618 5622 5626 5630 5633 5636 5638 5640 5642 5643 5644 5645 5646 5647 5647 5647 5648 5650 5650 5650 5651 5651 5651 5651 5651 5651 5651 5651 5650 5650
5505 5511 5517 5523 5526 5527 5528 5532 5538 5543 5550 5558 5566 5573 5580 5586 5593 5599 5604 5608 5612 5616 5620 5623 5627 5629 5632 5634 5635 5637 5638 5639 5640 5640 5641 5642 5643 5644 5645 5646 5646 5645 5646 5646 5646 5646 5646 5645 5643
5496 5504 5508 5512 5514 5512 5513 5517 5524 5530 5535 5543 5551 5559 5566 5574 5581 5588 5593 5597 5602 5606 5611 5614 5617 5620 5623 5625 5627 5629 5630 5632 5633 5634 5635 5636 5638 5638 5639 5640 5640 5640 5640 5640 5640 5639 5639 5638 5637
5486 5490 5496 5500 5500 5497 5500 5505 5512 5517 5523 5529 5536 5543 5551 5560 5569 5576 5582 5587 5592 5597 5600 5605 5608 5612 5614 5617 5620 5622 5623 5625 5625 5626 5628 5629 5631 5632 5633 5634 5634 5634 5634 5635 5635 5633 5632 5631 5631
5472 5476 5482 5486 5485 5485 5489 5493 5501 5506 5511 5517 5523 5531 5538 5547 5557 5563 5570 5576 5582 5587 5592 5596 5600 5604 5607 5610 5613 5616 5617 5618 5619 5619 5621 5622 5625 5626 5627 5628 5629 5628 5629 5628 5628 5628 5627 5625 5626
5463 5467 5470 5470 5473 5477 5479 5487 5495 5498 5502 5507 5513 5519 5526 5533 5542 5551 5558 5565 5572 5577 5582 5586 5590 5594 5598 5601 5604 5606 5608 5609 5611 5612 5613 5615 5617 5618 5620 5621 5622 5622 5623 5623 5622 5622 5622 5620 5619
5455 5461 5458 5458 5462 5469 5472 5480 5490 5488 5492 5496 5502 5508 5515 5522 5529 5538 5545 5552 5560 5566 5571 5576 5580 5584 5588 5592 5596 5600 5603 5605 5607 5607 5607 5609 5611 5612 5613 5614 5615 5615 5616 5616 5616 5616 5617 5616 5614
5442 5446 5450 5452 5455 5456 5463 5464 5480 5478 5479 5485 5489 5495 5503 5510 5517 5525 5532 5540 5547 5553 5559 5565 5570 5574 5577 5582 5587 5591 5595 5598 5600 5600 5601 5602 5603 5605 5606 5607 5607 5608 5609 5609 5609 5610 5610 5611 5610
5429 5438 5443 5446 5448 5445 5456 5458 5466 5468 5468 5474 5479 5483 5491 5498 5505 5513 5521 5528 5535 5541 5547 5553 5558 5562 5567 5571 5576 5582 5587 5590 5591 5593 5594 5595 5597 5598 5599 5600 5600 5601 5602 5602 5603 5603 5603 5604 5604
5420 5427 5437 5439 5440 5447 5450 5447 5451 5455 5457 5462 5467 5473 5479 5486 5493 5500 5509 5516 5523 5529 5535 5541 5548 5552 5556 5561 5566 5571 5576 5580 5584 5586 5588 5589 5590 5591 5593 5593 5594 5595 5595 5595 5595 5595 5596 5596 5596
5408 5415 5423 5431 5439 5444 5436 5438 5446 5442 5445 5451 5457 5463 5469 5475 5480 5488 5496 5505 5512 5518 5524 5530 5537 5541 5546 5551 5555 5560 5565 5570 5574 5577 5580 5582 5584 5585 5586 5586 5587 5588 5588 5587 5588 5588 5588 5588 5588
5399 5404 5407 5412 5421 5426 5431 5432 5434 5432 5438 5444 5449 5454 5460 5464 5470 5477 5485 5493 5501 5507 5513 5519 5525 5531 5536 5540 5545 5550 5555 5560 5564 5567 5570 5573 5575 5576 5578 5578 5579 5580 5580 5580 5580 5580 5580 5580 5580
5388 5394 5399 5404 5411 5422 5428 5430 5429 5423 5428 5433 5440 5445 5450 5455 5461 5467 5474 5481 5488 5496 5502 5509 5515 5521 5526 5530 5535 5540 5545 5549 5553 5557 5560 5564 5566 5567 5569 5570 5570 5571 5572 5571 5572 5572 5572 5572 5572
5376 5379 5386 5397 5401 5414 5421 5423 5410 5410 5414 5420 5428 5433 5439 5445 5451 5457 5463 5469 5475 5483 5490 5497 5504 5510 5515 5521 5526 5531 5535 5539 5543 5547 5550 5553 5556 5558 5559 5561 5561 5562 5563 5563 5563 5564 5564 5564 5564
5361 5363 5371 5382 5386 5396 5410 5406 5396 5397 5403 5408 5414 5420 5427 5434 5441 5447 5452 5458 5464 5471 5478 5485 5492 5499 5504 5510 5516 5521 5526 5530 5534 5537 5540 5543 5546 5548 5549 5551 5552 5553 5554 5555 5555 5555 5555 5555 5555